| time (UTC) | temp C | wind direction | speed KPH | gust KPH | rain 1hr cm | rain 24hr cm | rain mn cm | humidity % | barometer mb |
| 20260508104759 | 17 | 7 | 1.6 | 1.6 | 0.00 | 0.00 | 0.00 | 82 | 1015.8 |
| 20260508104256 | 16 | 341 | 3.2 | 3.2 | 0.00 | 0.00 | 0.00 | 81 | 1015.8 |
| 20260508103753 | 16 | 337 | 1.6 | 3.2 | 0.00 | 0.00 | 0.00 | 82 | 1015.8 |
| 20260508103250 | 16 | 295 | 1.6 | 1.6 | 0.00 | 0.00 | 0.00 | 82 | 1015.8 |
| 20260508102747 | 16 | 343 | 3.2 | 3.2 | 0.00 | 0.00 | 0.00 | 82 | 1015.5 |
| 20260508102245 | 16 | 0 | 4.8 | 8.0 | 0.00 | 0.00 | 0.00 | 83 | 1015.5 |
| 20260508101742 | 16 | 357 | 3.2 | 3.2 | 0.00 | 0.00 | 0.00 | 83 | 1015.8 |
| 20260508101240 | 16 | 358 | 3.2 | 4.8 | 0.00 | 0.00 | 0.00 | 83 | 1015.5 |
| 20260508100738 | 16 | 295 | 3.2 | 3.2 | 0.00 | 0.00 | 0.00 | 83 | 1015.5 |
| 20260508100235 | 16 | 1 | 3.2 | 3.2 | 0.00 | 0.00 | 0.00 | 83 | 1015.8 |
| 20260508095731 | 16 | 353 | 4.8 | 4.8 | 0.00 | 0.00 | 0.00 | 81 | 1015.8 |
| 20260508095229 | 17 | 298 | 1.6 | 1.6 | 0.00 | 0.00 | 0.00 | 79 | 1015.8 |
| 20260508094725 | 17 | 10 | 1.6 | 1.6 | 0.00 | 0.00 | 0.00 | 79 | 1015.8 |
| 20260508094222 | 17 | 314 | 1.6 | 1.6 | 0.00 | 0.00 | 0.00 | 79 | 1016.2 |
| 20260508093720 | 17 | 292 | 1.6 | 1.6 | 0.00 | 0.00 | 0.00 | 79 | 1016.5 |
| 20260508093218 | 17 | 333 | 0.0 | 1.6 | 0.00 | 0.00 | 0.00 | 79 | 1016.2 |
| 20260508092714 | 17 | 292 | 1.6 | 1.6 | 0.00 | 0.00 | 0.00 | 79 | 1016.2 |
| 20260508092212 | 17 | 300 | 1.6 | 1.6 | 0.00 | 0.00 | 0.00 | 79 | 1016.2 |
| 20260508091710 | 17 | 304 | 1.6 | 1.6 | 0.00 | 0.00 | 0.00 | 79 | 1015.8 |
| 20260508091207 | 17 | 321 | 1.6 | 1.6 | 0.00 | 0.00 | 0.00 | 78 | 1015.5 |
| 20260508090704 | 17 | 10 | 0.0 | 0.0 | 0.00 | 0.00 | 0.00 | 78 | 1015.5 |
| 20260508090202 | 17 | 286 | 1.6 | 1.6 | 0.00 | 0.00 | 0.00 | 78 | 1015.5 |
| 20260508085657 | 17 | 323 | 1.6 | 1.6 | 0.00 | 0.00 | 0.00 | 78 | 1015.5 |
| 20260508085155 | 17 | 359 | 3.2 | 3.2 | 0.00 | 0.00 | 0.00 | 78 | 1015.5 |
| 20260508084651 | 17 | 310 | 1.6 | 3.2 | 0.00 | 0.00 | 0.00 | 78 | 1015.8 |
| 20260508084148 | 17 | 237 | 0.0 | 0.0 | 0.00 | 0.00 | 0.00 | 77 | 1015.8 |
| 20260508083646 | 17 | 314 | 1.6 | 3.2 | 0.00 | 0.00 | 0.00 | 77 | 1015.8 |
| 20260508083143 | 17 | 333 | 3.2 | 3.2 | 0.00 | 0.00 | 0.00 | 78 | 1015.8 |
| 20260508082638 | 17 | 310 | 1.6 | 1.6 | 0.00 | 0.00 | 0.00 | 77 | 1016.2 |
| 20260508082136 | 17 | 330 | 1.6 | 1.6 | 0.00 | 0.00 | 0.00 | 77 | 1016.2 |
| 20260508081633 | 17 | 337 | 3.2 | 3.2 | 0.00 | 0.00 | 0.00 | 77 | 1015.8 |
| 20260508081129 | 17 | 345 | 1.6 | 3.2 | 0.00 | 0.00 | 0.00 | 77 | 1015.8 |
| 20260508080627 | 17 | 323 | 0.0 | 0.0 | 0.00 | 0.00 | 0.00 | 77 | 1016.2 |
| 20260508080125 | 17 | 336 | 1.6 | 3.2 | 0.00 | 0.00 | 0.00 | 77 | 1015.8 |
| 20260508075621 | 17 | 346 | 3.2 | 3.2 | 0.00 | 0.00 | 0.00 | 77 | 1015.8 |
| 20260508075118 | 17 | 300 | 1.6 | 1.6 | 0.00 | 0.00 | 0.00 | 77 | 1015.5 |
| 20260508074616 | 17 | 320 | 3.2 | 3.2 | 0.00 | 0.00 | 0.00 | 77 | 1015.8 |
| 20260508074113 | 17 | 303 | 1.6 | 3.2 | 0.00 | 0.00 | 0.00 | 77 | 1015.8 |
| 20260508073610 | 17 | 303 | 1.6 | 1.6 | 0.00 | 0.00 | 0.00 | 77 | 1015.8 |
| 20260508073108 | 17 | 300 | 1.6 | 1.6 | 0.00 | 0.00 | 0.00 | 78 | 1016.2 |
| 20260508072603 | 17 | 315 | 1.6 | 1.6 | 0.00 | 0.00 | 0.00 | 78 | 1015.5 |
| 20260508072100 | 17 | 334 | 1.6 | 3.2 | 0.00 | 0.00 | 0.00 | 78 | 1015.5 |
| 20260508071558 | 17 | 342 | 3.2 | 3.2 | 0.00 | 0.00 | 0.00 | 78 | 1015.5 |
| 20260508071056 | 17 | 344 | 3.2 | 3.2 | 0.00 | 0.00 | 0.00 | 78 | 1015.8 |
| 20260508070553 | 17 | 333 | 3.2 | 4.8 | 0.00 | 0.00 | 0.00 | 78 | 1015.8 |
| 20260508070052 | 17 | 43 | 0.0 | 0.0 | 0.00 | 0.00 | 0.00 | 77 | 1016.2 |
| 20260508065549 | 17 | 333 | 3.2 | 3.2 | 0.00 | 0.00 | 0.00 | 78 | 1016.2 |
| 20260508065047 | 17 | 333 | 3.2 | 3.2 | 0.00 | 0.00 | 0.00 | 78 | 1016.2 |
| 20260508064544 | 17 | 341 | 3.2 | 3.2 | 0.00 | 0.00 | 0.00 | 78 | 1016.2 |
| 20260508064042 | 17 | 305 | 3.2 | 3.2 | 0.00 | 0.00 | 0.00 | 78 | 1016.9 |
| 20260508063539 | 17 | 288 | 1.6 | 1.6 | 0.00 | 0.00 | 0.00 | 77 | 1016.9 |
| 20260508063037 | 17 | 326 | 3.2 | 3.2 | 0.00 | 0.00 | 0.00 | 77 | 1016.9 |
| 20260508062534 | 17 | 285 | 0.0 | 0.0 | 0.00 | 0.00 | 0.00 | 78 | 1016.9 |
| 20260508062031 | 17 | 357 | 0.0 | 0.0 | 0.00 | 0.00 | 0.00 | 78 | 1016.9 |
| 20260508061529 | 17 | 307 | 1.6 | 1.6 | 0.00 | 0.00 | 0.00 | 77 | 1016.9 |
| 20260508061025 | 16 | 271 | 0.0 | 0.0 | 0.00 | 0.00 | 0.00 | 78 | 1016.9 |
| 20260508060522 | 16 | 282 | 0.0 | 0.0 | 0.00 | 0.00 | 0.00 | 78 | 1016.9 |
| 20260508060020 | 16 | 292 | 0.0 | 1.6 | 0.00 | 0.00 | 0.00 | 78 | 1016.5 |
| 20260508055515 | 17 | 338 | 1.6 | 3.2 | 0.00 | 0.00 | 0.00 | 78 | 1016.9 |
| 20260508055012 | 17 | 282 | 0.0 | 0.0 | 0.00 | 0.00 | 0.00 | 78 | 1017.2 |
| 20260508054508 | 16 | 271 | 0.0 | 0.0 | 0.00 | 0.00 | 0.00 | 78 | 1016.9 |
| 20260508054006 | 16 | 308 | 1.6 | 1.6 | 0.00 | 0.00 | 0.00 | 78 | 1016.9 |
| 20260508053503 | 16 | 293 | 1.6 | 1.6 | 0.00 | 0.00 | 0.00 | 78 | 1016.9 |
| 20260508053001 | 16 | 332 | 1.6 | 1.6 | 0.00 | 0.00 | 0.00 | 77 | 1016.5 |
| 20260508052458 | 16 | 305 | 0.0 | 1.6 | 0.00 | 0.00 | 0.00 | 77 | 1016.5 |
| 20260508051954 | 16 | 351 | 3.2 | 3.2 | 0.00 | 0.00 | 0.00 | 77 | 1016.2 |
| 20260508051449 | 16 | 331 | 0.0 | 1.6 | 0.00 | 0.00 | 0.00 | 78 | 1016.2 |
| 20260508050946 | 17 | 348 | 3.2 | 3.2 | 0.00 | 0.00 | 0.00 | 77 | 1016.5 |
| 20260508050442 | 17 | 354 | 0.0 | 1.6 | 0.00 | 0.00 | 0.00 | 77 | 1017.2 |
| 20260508045939 | 17 | 239 | 1.6 | 1.6 | 0.00 | 0.00 | 0.00 | 78 | 1017.2 |
| 20260508045437 | 16 | 293 | 1.6 | 1.6 | 0.00 | 0.00 | 0.00 | 78 | 1016.9 |
| 20260508044934 | 17 | 313 | 3.2 | 3.2 | 0.00 | 0.00 | 0.00 | 77 | 1016.2 |
| 20260508044431 | 16 | 44 | 0.0 | 0.0 | 0.00 | 0.00 | 0.00 | 78 | 1016.2 |
| 20260508043926 | 16 | 331 | 1.6 | 3.2 | 0.00 | 0.00 | 0.00 | 78 | 1016.5 |
| 20260508043424 | 16 | 336 | 3.2 | 3.2 | 0.00 | 0.00 | 0.00 | 77 | 1016.5 |
| 20260508042920 | 16 | 331 | 3.2 | 3.2 | 0.00 | 0.00 | 0.00 | 77 | 1016.5 |
| 20260508042418 | 16 | 305 | 1.6 | 1.6 | 0.00 | 0.00 | 0.00 | 78 | 1016.5 |
| 20260508041914 | 16 | 309 | 0.0 | 0.0 | 0.00 | 0.00 | 0.00 | 78 | 1016.9 |
| 20260508041411 | 16 | 297 | 1.6 | 1.6 | 0.00 | 0.00 | 0.00 | 77 | 1016.9 |
| 20260508040908 | 16 | 309 | 1.6 | 1.6 | 0.00 | 0.00 | 0.00 | 78 | 1017.2 |
| 20260508040405 | 16 | 307 | 0.0 | 1.6 | 0.00 | 0.00 | 0.00 | 77 | 1017.2 |
| 20260508035903 | 16 | 290 | 1.6 | 1.6 | 0.00 | 0.00 | 0.00 | 78 | 1017.2 |
| 20260508035400 | 16 | 343 | 1.6 | 1.6 | 0.00 | 0.00 | 0.00 | 78 | 1017.2 |
| 20260508034856 | 16 | 285 | 0.0 | 1.6 | 0.00 | 0.00 | 0.00 | 78 | 1017.5 |
| 20260508034354 | 17 | 296 | 1.6 | 1.6 | 0.00 | 0.00 | 0.00 | 78 | 1017.5 |
| 20260508033850 | 16 | 286 | 1.6 | 1.6 | 0.00 | 0.00 | 0.00 | 78 | 1017.5 |
| 20260508033348 | 16 | 303 | 3.2 | 3.2 | 0.00 | 0.00 | 0.00 | 78 | 1017.9 |
| 20260508032846 | 16 | 272 | 0.0 | 1.6 | 0.00 | 0.00 | 0.00 | 78 | 1017.5 |
| 20260508032343 | 16 | 264 | 0.0 | 0.0 | 0.00 | 0.00 | 0.00 | 78 | 1017.5 |
| 20260508031839 | 16 | 268 | 0.0 | 0.0 | 0.00 | 0.00 | 0.00 | 78 | 1017.9 |
| 20260508031336 | 17 | 272 | 0.0 | 0.0 | 0.00 | 0.00 | 0.00 | 78 | 1017.5 |
| 20260508030833 | 16 | 267 | 0.0 | 0.0 | 0.00 | 0.00 | 0.00 | 78 | 1016.9 |
| 20260508030330 | 17 | 314 | 1.6 | 1.6 | 0.00 | 0.00 | 0.00 | 77 | 1016.5 |
| 20260508025827 | 17 | 267 | 0.0 | 0.0 | 0.00 | 0.00 | 0.00 | 78 | 1016.9 |
| 20260508025324 | 17 | 268 | 0.0 | 0.0 | 0.00 | 0.00 | 0.00 | 78 | 1017.2 |
| 20260508024821 | 17 | 272 | 0.0 | 0.0 | 0.00 | 0.00 | 0.00 | 78 | 1016.9 |
| 20260508024317 | 17 | 268 | 0.0 | 0.0 | 0.00 | 0.00 | 0.00 | 77 | 1016.5 |
| 20260508023814 | 17 | 256 | 0.0 | 0.0 | 0.00 | 0.00 | 0.00 | 76 | 1015.8 |
| 20260508023311 | 17 | 244 | 0.0 | 0.0 | 0.00 | 0.00 | 0.00 | 76 | 1015.8 |
| 20260508022807 | 17 | 336 | 3.2 | 3.2 | 0.00 | 0.00 | 0.00 | 75 | 1015.8 |
| 20260508022306 | 17 | 43 | 0.0 | 1.6 | 0.00 | 0.00 | 0.00 | 75 | 1015.8 |
| 20260508021801 | 17 | 52 | 1.6 | 1.6 | 0.00 | 0.00 | 0.00 | 75 | 1015.8 |
| 20260508021256 | 17 | 343 | 3.2 | 3.2 | 0.00 | 0.00 | 0.00 | 75 | 1015.5 |
| 20260508020752 | 17 | 350 | 3.2 | 3.2 | 0.00 | 0.00 | 0.00 | 74 | 1015.5 |
| 20260508020251 | 17 | 45 | 0.0 | 0.0 | 0.00 | 0.00 | 0.00 | 75 | 1015.2 |
| 20260508015747 | 17 | 89 | 1.6 | 1.6 | 0.00 | 0.00 | 0.00 | 74 | 1015.2 |
| 20260508015244 | 17 | 151 | 0.0 | 0.0 | 0.00 | 0.00 | 0.00 | 74 | 1015.2 |
| 20260508014741 | 17 | 303 | 1.6 | 1.6 | 0.00 | 0.00 | 0.00 | 74 | 1015.8 |
| 20260508014238 | 17 | 282 | 1.6 | 1.6 | 0.00 | 0.00 | 0.00 | 73 | 1015.5 |
| 20260508013734 | 17 | 49 | 0.0 | 0.0 | 0.00 | 0.00 | 0.00 | 73 | 1015.2 |
| 20260508013231 | 17 | 70 | 1.6 | 1.6 | 0.00 | 0.00 | 0.00 | 73 | 1015.5 |
| 20260508012728 | 17 | 7 | 3.2 | 3.2 | 0.00 | 0.00 | 0.00 | 72 | 1015.8 |
| 20260508012225 | 17 | 293 | 1.6 | 1.6 | 0.00 | 0.00 | 0.00 | 72 | 1016.2 |
| 20260508011723 | 17 | 343 | 3.2 | 3.2 | 0.00 | 0.00 | 0.00 | 72 | 1015.8 |
| 20260508011220 | 18 | 44 | 0.0 | 1.6 | 0.00 | 0.00 | 0.00 | 71 | 1015.5 |
| 20260508010716 | 18 | 353 | 0.0 | 1.6 | 0.00 | 0.00 | 0.00 | 71 | 1015.5 |
| 20260508010215 | 18 | 354 | 6.4 | 8.0 | 0.00 | 0.00 | 0.00 | 70 | 1015.8 |
| 20260508005712 | 18 | 65 | 1.6 | 3.2 | 0.00 | 0.00 | 0.00 | 71 | 1015.2 |
| 20260508005208 | 18 | 332 | 1.6 | 3.2 | 0.00 | 0.00 | 0.00 | 70 | 1016.2 |
| 20260508004704 | 18 | 83 | 0.0 | 1.6 | 0.00 | 0.00 | 0.00 | 70 | 1015.8 |
| 20260508004200 | 18 | 271 | 0.0 | 0.0 | 0.00 | 0.00 | 0.00 | 69 | 1016.2 |
| 20260508003657 | 18 | 31 | 0.0 | 0.0 | 0.00 | 0.00 | 0.00 | 68 | 1016.2 |
| 20260508003155 | 18 | 336 | 4.8 | 4.8 | 0.00 | 0.00 | 0.00 | 68 | 1016.5 |
| 20260508002651 | 18 | 80 | 0.0 | 1.6 | 0.00 | 0.00 | 0.00 | 67 | 1016.5 |
| 20260508002149 | 18 | 69 | 0.0 | 1.6 | 0.00 | 0.00 | 0.00 | 66 | 1016.5 |
| 20260508001644 | 18 | 333 | 1.6 | 1.6 | 0.00 | 0.00 | 0.00 | 67 | 1016.5 |
| 20260508001140 | 18 | 51 | 0.0 | 1.6 | 0.00 | 0.00 | 0.00 | 66 | 1016.5 |
| 20260508000636 | 18 | 328 | 4.8 | 8.0 | 0.00 | 0.00 | 0.00 | 66 | 1016.9 |
| 20260508000133 | 18 | 4 | 4.8 | 8.0 | 0.00 | 0.00 | 0.00 | 67 | 1016.9 |
| 20260507235630 | 18 | 330 | 6.4 | 8.0 | 0.00 | 0.00 | 0.00 | 65 | 1016.9 |
| 20260507235128 | 18 | 341 | 3.2 | 4.8 | 0.00 | 0.00 | 0.00 | 66 | 1016.9 |
| 20260507234624 | 18 | 353 | 3.2 | 3.2 | 0.00 | 0.00 | 0.00 | 66 | 1016.9 |
| 20260507234120 | 18 | 51 | 4.8 | 4.8 | 0.00 | 0.00 | 0.00 | 66 | 1016.9 |
| 20260507233617 | 19 | 341 | 8.0 | 9.7 | 0.00 | 0.00 | 0.00 | 65 | 1017.5 |
| 20260507233116 | 20 | 22 | 4.8 | 8.0 | 0.00 | 0.00 | 0.00 | 65 | 1017.2 |
| 20260507232612 | 20 | 344 | 6.4 | 9.7 | 0.00 | 0.00 | 0.00 | 64 | 1017.2 |
| 20260507232109 | 20 | 52 | 0.0 | 0.0 | 0.00 | 0.00 | 0.00 | 64 | 1016.5 |
| 20260507231605 | 19 | 8 | 6.4 | 8.0 | 0.00 | 0.00 | 0.00 | 64 | 1016.9 |
| 20260507231103 | 20 | 344 | 6.4 | 8.0 | 0.00 | 0.00 | 0.00 | 65 | 1017.2 |
| 20260507230559 | 20 | 350 | 6.4 | 8.0 | 0.00 | 0.00 | 0.00 | 64 | 1016.9 |
| 20260507230056 | 20 | 36 | 1.6 | 3.2 | 0.00 | 0.00 | 0.00 | 65 | 1016.9 |
| 20260507225551 | 19 | 86 | 4.8 | 8.0 | 0.00 | 0.00 | 0.00 | 64 | 1016.9 |
| 20260507225048 | 19 | 9 | 8.0 | 9.7 | 0.00 | 0.00 | 0.00 | 65 | 1017.2 |
| 20260507224543 | 19 | 350 | 4.8 | 4.8 | 0.00 | 0.00 | 0.00 | 64 | 1017.2 |
| 20260507224040 | 19 | 340 | 6.4 | 11.3 | 0.00 | 0.00 | 0.00 | 64 | 1017.2 |
| 20260507223536 | 20 | 332 | 6.4 | 8.0 | 0.00 | 0.00 | 0.00 | 63 | 1017.5 |
| 20260507223034 | 20 | 0 | 8.0 | 9.7 | 0.00 | 0.00 | 0.00 | 63 | 1017.9 |
| 20260507222531 | 19 | 347 | 3.2 | 3.2 | 0.00 | 0.00 | 0.00 | 64 | 1017.9 |
| 20260507222027 | 19 | 344 | 4.8 | 8.0 | 0.00 | 0.00 | 0.00 | 65 | 1017.5 |
| 20260507221523 | 19 | 331 | 4.8 | 8.0 | 0.00 | 0.00 | 0.00 | 65 | 1017.5 |
| 20260507221020 | 19 | 354 | 4.8 | 8.0 | 0.00 | 0.00 | 0.00 | 64 | 1017.5 |
| 20260507220518 | 20 | 2 | 8.0 | 11.3 | 0.00 | 0.00 | 0.00 | 63 | 1017.2 |
| 20260507220015 | 19 | 357 | 3.2 | 3.2 | 0.00 | 0.00 | 0.00 | 65 | 1017.5 |
| 20260507215511 | 19 | 4 | 6.4 | 8.0 | 0.00 | 0.00 | 0.00 | 65 | 1017.5 |
| 20260507215009 | 19 | 349 | 4.8 | 4.8 | 0.00 | 0.00 | 0.00 | 65 | 1017.5 |
| 20260507214506 | 19 | 319 | 4.8 | 4.8 | 0.00 | 0.00 | 0.00 | 65 | 1017.2 |
| 20260507214001 | 19 | 310 | 4.8 | 4.8 | 0.00 | 0.00 | 0.00 | 65 | 1017.2 |
| 20260507213458 | 19 | 0 | 8.0 | 9.7 | 0.00 | 0.00 | 0.00 | 64 | 1017.2 |
| 20260507212955 | 19 | 4 | 4.8 | 4.8 | 0.00 | 0.00 | 0.00 | 65 | 1017.5 |
| 20260507212450 | 19 | 330 | 6.4 | 8.0 | 0.00 | 0.00 | 0.00 | 65 | 1017.9 |
| 20260507211948 | 19 | 16 | 1.6 | 3.2 | 0.00 | 0.00 | 0.00 | 65 | 1017.5 |
| 20260507211444 | 20 | 53 | 6.4 | 8.0 | 0.00 | 0.00 | 0.00 | 64 | 1017.9 |
| 20260507210941 | 19 | 14 | 8.0 | 11.3 | 0.00 | 0.00 | 0.00 | 65 | 1017.2 |
| 20260507210438 | 19 | 54 | 6.4 | 8.0 | 0.00 | 0.00 | 0.00 | 66 | 1017.2 |
| 20260507205935 | 18 | 339 | 6.4 | 8.0 | 0.00 | 0.00 | 0.00 | 66 | 1017.2 |
| 20260507205432 | 18 | 328 | 6.4 | 9.7 | 0.00 | 0.00 | 0.00 | 66 | 1017.2 |
| 20260507204928 | 18 | 0 | 9.7 | 11.3 | 0.00 | 0.00 | 0.00 | 67 | 1017.2 |
| 20260507204424 | 18 | 358 | 6.4 | 8.0 | 0.00 | 0.00 | 0.00 | 67 | 1017.5 |
| 20260507203922 | 18 | 53 | 4.8 | 8.0 | 0.00 | 0.00 | 0.00 | 68 | 1017.9 |
| 20260507203420 | 18 | 34 | 8.0 | 11.3 | 0.00 | 0.00 | 0.00 | 67 | 1018.2 |
| 20260507202916 | 18 | 21 | 4.8 | 8.0 | 0.00 | 0.00 | 0.00 | 68 | 1017.9 |
| 20260507202413 | 18 | 3 | 9.7 | 11.3 | 0.00 | 0.00 | 0.00 | 67 | 1017.9 |
| 20260507201908 | 19 | 9 | 3.2 | 3.2 | 0.00 | 0.00 | 0.00 | 69 | 1018.2 |
| 20260507201404 | 18 | 341 | 8.0 | 9.7 | 0.00 | 0.00 | 0.00 | 68 | 1018.2 |
| 20260507200901 | 18 | 53 | 1.6 | 3.2 | 0.00 | 0.00 | 0.00 | 68 | 1017.9 |
| 20260507200356 | 18 | 0 | 8.0 | 12.9 | 0.00 | 0.00 | 0.00 | 69 | 1017.9 |
| 20260507195852 | 18 | 26 | 8.0 | 12.9 | 0.00 | 0.00 | 0.00 | 70 | 1017.9 |
| 20260507195350 | 18 | 8 | 9.7 | 14.5 | 0.00 | 0.00 | 0.00 | 71 | 1017.9 |
| 20260507194847 | 18 | 0 | 9.7 | 11.3 | 0.00 | 0.00 | 0.00 | 73 | 1018.2 |
| 20260507194344 | 17 | 26 | 4.8 | 8.0 | 0.00 | 0.00 | 0.00 | 77 | 1017.9 |
| 20260507193840 | 17 | 344 | 8.0 | 9.7 | 0.00 | 0.00 | 0.00 | 77 | 1018.5 |
| 20260507193338 | 17 | 88 | 8.0 | 9.7 | 0.00 | 0.00 | 0.00 | 78 | 1018.2 |
| 20260507192833 | 17 | 37 | 0.0 | 1.6 | 0.00 | 0.00 | 0.00 | 75 | 1018.2 |
| 20260507192330 | 17 | 9 | 4.8 | 8.0 | 0.00 | 0.00 | 0.00 | 73 | 1018.5 |
| 20260507191826 | 17 | 359 | 8.0 | 9.7 | 0.00 | 0.00 | 0.00 | 71 | 1018.9 |
| 20260507191322 | 17 | 39 | 1.6 | 1.6 | 0.00 | 0.00 | 0.00 | 71 | 1018.5 |
| 20260507190820 | 17 | 45 | 1.6 | 3.2 | 0.00 | 0.00 | 0.00 | 71 | 1018.9 |
| 20260507190318 | 17 | 14 | 6.4 | 9.7 | 0.00 | 0.00 | 0.00 | 71 | 1018.9 |
| 20260507185817 | 17 | 344 | 4.8 | 9.7 | 0.00 | 0.00 | 0.00 | 71 | 1018.9 |
| 20260507185313 | 18 | 12 | 3.2 | 4.8 | 0.00 | 0.00 | 0.00 | 71 | 1018.9 |
| 20260507184810 | 18 | 11 | 1.6 | 1.6 | 0.00 | 0.00 | 0.00 | 69 | 1018.9 |
| 20260507184308 | 18 | 341 | 9.7 | 11.3 | 0.00 | 0.00 | 0.00 | 69 | 1018.9 |
| 20260507183805 | 18 | 344 | 8.0 | 9.7 | 0.00 | 0.00 | 0.00 | 70 | 1019.7 |
| 20260507183302 | 18 | 1 | 4.8 | 8.0 | 0.00 | 0.00 | 0.00 | 71 | 1019.3 |
| 20260507182759 | 17 | 3 | 9.7 | 14.5 | 0.00 | 0.00 | 0.00 | 71 | 1019.7 |
| 20260507182254 | 18 | 12 | 9.7 | 11.3 | 0.00 | 0.00 | 0.00 | 70 | 1019.3 |
| 20260507181751 | 18 | 342 | 6.4 | 9.7 | 0.00 | 0.00 | 0.00 | 70 | 1018.9 |
| 20260507181247 | 17 | 7 | 11.3 | 14.5 | 0.00 | 0.00 | 0.00 | 71 | 1018.9 |
| 20260507180744 | 17 | 71 | 9.7 | 11.3 | 0.00 | 0.00 | 0.00 | 71 | 1018.9 |
| 20260507180241 | 17 | 68 | 3.2 | 3.2 | 0.00 | 0.00 | 0.00 | 72 | 1018.5 |
| 20260507175736 | 17 | 45 | 1.6 | 3.2 | 0.00 | 0.00 | 0.00 | 71 | 1018.9 |
| 20260507175234 | 17 | 11 | 8.0 | 9.7 | 0.00 | 0.00 | 0.00 | 72 | 1018.9 |
| 20260507174731 | 17 | 332 | 1.6 | 3.2 | 0.00 | 0.00 | 0.00 | 74 | 1019.3 |
| 20260507174229 | 17 | 315 | 3.2 | 3.2 | 0.00 | 0.00 | 0.00 | 73 | 1018.9 |
| 20260507173726 | 17 | 44 | 1.6 | 1.6 | 0.00 | 0.00 | 0.00 | 74 | 1018.9 |
| 20260507173223 | 16 | 46 | 1.6 | 3.2 | 0.00 | 0.00 | 0.00 | 74 | 1018.5 |
| 20260507172720 | 16 | 341 | 1.6 | 1.6 | 0.00 | 0.00 | 0.00 | 75 | 1018.9 |
| 20260507172217 | 16 | 42 | 0.0 | 1.6 | 0.00 | 0.00 | 0.00 | 74 | 1018.9 |
| 20260507171716 | 16 | 56 | 3.2 | 4.8 | 0.00 | 0.00 | 0.00 | 75 | 1019.7 |
| 20260507171214 | 16 | 346 | 6.4 | 8.0 | 0.00 | 0.00 | 0.00 | 76 | 1020.3 |
| 20260507170711 | 16 | 51 | 3.2 | 3.2 | 0.00 | 0.00 | 0.00 | 76 | 1019.7 |
| 20260507170208 | 16 | 21 | 3.2 | 3.2 | 0.00 | 0.00 | 0.00 | 77 | 1020.0 |
| 20260507165703 | 16 | 25 | 8.0 | 9.7 | 0.00 | 0.00 | 0.00 | 76 | 1020.0 |
| 20260507165200 | 16 | 349 | 4.8 | 4.8 | 0.00 | 0.00 | 0.00 | 78 | 1020.0 |
| 20260507164656 | 16 | 52 | 4.8 | 9.7 | 0.00 | 0.00 | 0.00 | 80 | 1020.0 |
| 20260507164153 | 15 | 5 | 11.3 | 14.5 | 0.00 | 0.00 | 0.00 | 79 | 1020.0 |
| 20260507163650 | 15 | 339 | 9.7 | 16.1 | 0.00 | 0.00 | 0.00 | 79 | 1019.7 |
| 20260507163148 | 16 | 75 | 4.8 | 9.7 | 0.00 | 0.00 | 0.00 | 80 | 1020.0 |
| 20260507162644 | 16 | 6 | 8.0 | 9.7 | 0.00 | 0.00 | 0.00 | 79 | 1020.3 |
| 20260507162140 | 15 | 18 | 4.8 | 4.8 | 0.00 | 0.00 | 0.00 | 78 | 1020.3 |
| 20260507161636 | 16 | 357 | 8.0 | 11.3 | 0.00 | 0.00 | 0.00 | 78 | 1020.3 |
| 20260507161133 | 16 | 1 | 9.7 | 11.3 | 0.00 | 0.00 | 0.00 | 79 | 1020.3 |
| 20260507160630 | 16 | 8 | 12.9 | 14.5 | 0.00 | 0.00 | 0.00 | 80 | 1019.7 |
| 20260507160126 | 16 | 350 | 11.3 | 12.9 | 0.00 | 0.00 | 0.00 | 81 | 1019.7 |
| 20260507155622 | 16 | 341 | 6.4 | 8.0 | 0.00 | 0.00 | 0.00 | 81 | 1019.7 |
| 20260507155119 | 15 | 319 | 4.8 | 8.0 | 0.00 | 0.00 | 0.00 | 82 | 1020.3 |
| 20260507154615 | 15 | 29 | 4.8 | 8.0 | 0.00 | 0.00 | 0.00 | 82 | 1020.3 |
| 20260507154113 | 15 | 334 | 8.0 | 9.7 | 0.00 | 0.00 | 0.00 | 82 | 1020.7 |
| 20260507153609 | 15 | 340 | 6.4 | 8.0 | 0.00 | 0.00 | 0.00 | 82 | 1020.7 |
| 20260507153106 | 15 | 341 | 6.4 | 8.0 | 0.00 | 0.00 | 0.00 | 82 | 1020.7 |
| 20260507152602 | 15 | 30 | 4.8 | 4.8 | 0.00 | 0.00 | 0.00 | 83 | 1020.7 |
| 20260507152058 | 15 | 354 | 6.4 | 8.0 | 0.00 | 0.00 | 0.00 | 82 | 1020.3 |
| 20260507151554 | 15 | 2 | 8.0 | 9.7 | 0.00 | 0.00 | 0.00 | 83 | 1020.3 |
| 20260507151051 | 15 | 4 | 3.2 | 4.8 | 0.00 | 0.00 | 0.00 | 83 | 1020.7 |
| 20260507150549 | 15 | 359 | 4.8 | 9.7 | 0.00 | 0.00 | 0.00 | 83 | 1020.3 |
| 20260507150045 | 15 | 14 | 12.9 | 16.1 | 0.00 | 0.00 | 0.00 | 83 | 1020.7 |
| 20260507145540 | 15 | 7 | 4.8 | 8.0 | 0.00 | 0.00 | 0.00 | 83 | 1020.7 |
| 20260507145038 | 15 | 310 | 4.8 | 4.8 | 0.00 | 0.00 | 0.00 | 83 | 1020.3 |
| 20260507144534 | 15 | 17 | 6.4 | 8.0 | 0.00 | 0.00 | 0.00 | 82 | 1020.3 |
| 20260507144032 | 15 | 20 | 3.2 | 3.2 | 0.00 | 0.00 | 0.00 | 83 | 1020.0 |
| 20260507143529 | 15 | 349 | 6.4 | 8.0 | 0.00 | 0.00 | 0.00 | 83 | 1019.7 |
| 20260507143027 | 15 | 358 | 11.3 | 14.5 | 0.00 | 0.00 | 0.00 | 83 | 1020.0 |
| 20260507142522 | 15 | 64 | 8.0 | 11.3 | 0.00 | 0.00 | 0.00 | 83 | 1020.3 |
| 20260507142019 | 15 | 345 | 6.4 | 9.7 | 0.00 | 0.00 | 0.00 | 83 | 1020.3 |
| 20260507141515 | 15 | 34 | 9.7 | 12.9 | 0.00 | 0.00 | 0.00 | 83 | 1019.7 |
| 20260507141012 | 15 | 28 | 9.7 | 12.9 | 0.00 | 0.00 | 0.00 | 84 | 1019.7 |
| 20260507140509 | 15 | 14 | 16.1 | 17.7 | 0.00 | 0.00 | 0.00 | 84 | 1020.0 |
| 20260507140006 | 15 | 9 | 4.8 | 8.0 | 0.00 | 0.00 | 0.00 | 84 | 1019.7 |
| 20260507135503 | 15 | 17 | 14.5 | 16.1 | 0.00 | 0.00 | 0.00 | 84 | 1020.0 |
| 20260507135000 | 15 | 8 | 11.3 | 14.5 | 0.00 | 0.00 | 0.00 | 84 | 1019.3 |
| 20260507134456 | 15 | 57 | 6.4 | 9.7 | 0.00 | 0.00 | 0.00 | 84 | 1019.7 |
| 20260507133952 | 16 | 19 | 11.3 | 12.9 | 0.00 | 0.00 | 0.00 | 85 | 1019.7 |
| 20260507133448 | 16 | 21 | 8.0 | 9.7 | 0.00 | 0.00 | 0.00 | 85 | 1019.3 |
| 20260507132947 | 16 | 357 | 4.8 | 4.8 | 0.00 | 0.00 | 0.00 | 85 | 1018.9 |
| 20260507132443 | 15 | 18 | 4.8 | 4.8 | 0.00 | 0.00 | 0.00 | 85 | 1018.9 |
| 20260507131939 | 15 | 57 | 3.2 | 4.8 | 0.00 | 0.00 | 0.00 | 86 | 1019.3 |
| 20260507131436 | 15 | 55 | 6.4 | 9.7 | 0.00 | 0.00 | 0.00 | 86 | 1018.9 |
| 20260507130933 | 15 | 309 | 4.8 | 8.0 | 0.00 | 0.00 | 0.00 | 86 | 1019.7 |
| 20260507130431 | 15 | 35 | 8.0 | 11.3 | 0.00 | 0.00 | 0.00 | 86 | 1019.3 |
| 20260507125929 | 15 | 9 | 8.0 | 11.3 | 0.00 | 0.00 | 0.00 | 86 | 1019.3 |
| 20260507125427 | 15 | 8 | 8.0 | 11.3 | 0.00 | 0.00 | 0.00 | 86 | 1019.3 |
| 20260507124924 | 15 | 52 | 6.4 | 9.7 | 0.00 | 0.00 | 0.00 | 86 | 1019.3 |
| 20260507124420 | 15 | 77 | 4.8 | 8.0 | 0.00 | 0.00 | 0.00 | 87 | 1019.3 |
| 20260507123919 | 15 | 347 | 9.7 | 11.3 | 0.00 | 0.00 | 0.00 | 87 | 1019.3 |
| 20260507123418 | 15 | 15 | 9.7 | 12.9 | 0.00 | 0.00 | 0.00 | 87 | 1019.3 |
| 20260507122912 | 15 | 19 | 9.7 | 12.9 | 0.00 | 0.00 | 0.00 | 87 | 1018.9 |
| 20260507122407 | 15 | 42 | 9.7 | 12.9 | 0.00 | 0.00 | 0.00 | 87 | 1018.9 |
| 20260507121904 | 15 | 344 | 6.4 | 9.7 | 0.00 | 0.00 | 0.00 | 87 | 1019.3 |
| 20260507121359 | 15 | 42 | 3.2 | 4.8 | 0.00 | 0.00 | 0.00 | 88 | 1018.9 |
| 20260507120856 | 15 | 358 | 9.7 | 11.3 | 0.00 | 0.00 | 0.00 | 88 | 1018.5 |
| 20260507120352 | 15 | 49 | 3.2 | 4.8 | 0.00 | 0.00 | 0.00 | 88 | 1018.5 |
| 20260507115848 | 15 | 279 | 4.8 | 4.8 | 0.00 | 0.00 | 0.00 | 88 | 1018.2 |
| 20260507115344 | 15 | 353 | 6.4 | 8.0 | 0.00 | 0.00 | 0.00 | 88 | 1018.5 |
| 20260507114840 | 15 | 31 | 6.4 | 8.0 | 0.00 | 0.00 | 0.00 | 88 | 1018.2 |
| 20260507114337 | 15 | 26 | 8.0 | 9.7 | 0.00 | 0.00 | 0.00 | 88 | 1018.2 |
| 20260507113835 | 15 | 357 | 4.8 | 4.8 | 0.00 | 0.00 | 0.00 | 88 | 1018.5 |
| 20260507113332 | 15 | 13 | 3.2 | 4.8 | 0.00 | 0.00 | 0.00 | 87 | 1018.5 |
| 20260507112829 | 15 | 292 | 4.8 | 4.8 | 0.00 | 0.00 | 0.00 | 87 | 1018.2 |
| 20260507112326 | 15 | 10 | 3.2 | 4.8 | 0.00 | 0.00 | 0.00 | 88 | 1018.2 |
| 20260507111824 | 15 | 261 | 6.4 | 8.0 | 0.00 | 0.00 | 0.00 | 88 | 1018.5 |
| 20260507111320 | 15 | 306 | 4.8 | 4.8 | 0.00 | 0.00 | 0.00 | 87 | 1018.5 |
| 20260507110816 | 15 | 2 | 8.0 | 11.3 | 0.00 | 0.00 | 0.00 | 87 | 1018.2 |
| 20260507110313 | 15 | 345 | 1.6 | 3.2 | 0.00 | 0.00 | 0.00 | 87 | 1018.2 |
| 20260507105810 | 15 | 1 | 8.0 | 11.3 | 0.00 | 0.00 | 0.00 | 87 | 1018.5 |
| 20260507105307 | 15 | 45 | 6.4 | 8.0 | 0.00 | 0.00 | 0.00 | 87 | 1018.5 |